Time,TemperatureF,DewpointF,PressureIn,WindDirection,WindDirectionDegrees,WindSpeedMPH,WindSpeedGustMPH,Humidity,HourlyPrecipIn,Conditions,Clouds,dailyrainin,SoftwareType,DateUTC
2013-01-15 00:06:00,27.2,24.0,30.42,West,275,0.0,-999.0,86,-99.99,,,0.00,weatherlink.com 1.10,2013-01-15 08:06:00,
2013-01-15 00:21:00,27.2,24.0,30.42,West,275,0.0,-999.0,87,-99.99,,,0.00,weatherlink.com 1.10,2013-01-15 08:21:00,
2013-01-15 00:36:00,27.2,24.0,30.43,West,275,0.0,-999.0,87,-99.99,,,0.00,weatherlink.com 1.10,2013-01-15 08:36:00,
2013-01-15 00:52:00,27.1,24.0,30.43,West,275,0.0,-999.0,87,-99.99,,,0.00,weatherlink.com 1.10,2013-01-15 08:52:00,
2013-01-15 01:07:00,26.9,24.0,30.44,West,275,0.0,-999.0,87,-99.99,,,0.00,weatherlink.com 1.10,2013-01-15 09:07:00,
2013-01-15 01:22:00,26.6,23.0,30.44,West,275,0.0,-999.0,87,-99.99,,,0.00,weatherlink.com 1.10,2013-01-15 09:22:00,
2013-01-15 01:37:00,26.5,23.0,30.45,West,275,0.0,-999.0,88,-99.99,,,0.00,weatherlink.com 1.10,2013-01-15 09:37:00,
2013-01-15 01:52:00,26.3,23.0,30.45,West,275,0.0,-999.0,88,-99.99,,,0.00,weatherlink.com 1.10,2013-01-15 09:52:00,
2013-01-15 02:07:00,26.1,23.0,30.45,West,275,0.0,-999.0,88,-99.99,,,0.00,weatherlink.com 1.10,2013-01-15 10:07:00,
2013-01-15 02:22:00,25.9,23.0,30.46,West,275,0.0,-999.0,88,-99.99,,,0.00,weatherlink.com 1.10,2013-01-15 10:22:00,
2013-01-15 02:37:00,25.8,23.0,30.46,West,275,0.0,-999.0,89,-99.99,,,0.00,weatherlink.com 1.10,2013-01-15 10:37:00,
2013-01-15 02:52:00,25.7,23.0,30.46,West,275,0.0,-999.0,89,-99.99,,,0.00,weatherlink.com 1.10,2013-01-15 10:52:00,
2013-01-15 03:07:00,25.7,23.0,30.46,West,275,0.0,-999.0,89,-99.99,,,0.00,weatherlink.com 1.10,2013-01-15 11:07:00,
2013-01-15 03:22:00,25.6,23.0,30.46,West,275,0.0,-999.0,89,-99.99,,,0.00,weatherlink.com 1.10,2013-01-15 11:22:00,
2013-01-15 03:37:00,25.5,23.0,30.47,West,275,0.0,-999.0,89,-99.99,,,0.00,weatherlink.com 1.10,2013-01-15 11:37:00,
2013-01-15 03:52:00,25.3,23.0,30.47,West,275,0.0,-999.0,89,-99.99,,,0.00,weatherlink.com 1.10,2013-01-15 11:52:00,
2013-01-15 04:07:00,25.2,22.0,30.47,West,275,0.0,-999.0,89,-99.99,,,0.00,weatherlink.com 1.10,2013-01-15 12:07:00,
2013-01-15 04:22:00,25.2,23.0,30.47,West,275,0.0,-999.0,90,-99.99,,,0.00,weatherlink.com 1.10,2013-01-15 12:22:00,
2013-01-15 04:37:00,25.1,22.0,30.47,West,275,0.0,-999.0,89,-99.99,,,0.00,weatherlink.com 1.10,2013-01-15 12:37:00,
2013-01-15 04:53:00,25.0,23.0,30.47,West,275,0.0,-999.0,90,-99.99,,,0.00,weatherlink.com 1.10,2013-01-15 12:53:00,
2013-01-15 05:07:00,25.0,23.0,30.47,West,275,0.0,-999.0,90,-99.99,,,0.00,weatherlink.com 1.10,2013-01-15 13:07:00,
2013-01-15 05:23:00,25.0,23.0,30.47,West,275,0.0,-999.0,90,-99.99,,,0.00,weatherlink.com 1.10,2013-01-15 13:23:00,
2013-01-15 05:37:00,25.2,23.0,30.48,West,275,0.0,-999.0,90,-99.99,,,0.00,weatherlink.com 1.10,2013-01-15 13:37:00,
2013-01-15 05:52:00,25.6,23.0,30.48,West,275,0.0,-999.0,89,-99.99,,,0.00,weatherlink.com 1.10,2013-01-15 13:52:00,
2013-01-15 06:07:00,25.6,23.0,30.49,West,275,0.0,-999.0,88,-99.99,,,0.00,weatherlink.com 1.10,2013-01-15 14:07:00,
2013-01-15 06:22:00,25.4,22.0,30.49,West,275,0.0,-999.0,88,-99.99,,,0.00,weatherlink.com 1.10,2013-01-15 14:22:00,
2013-01-15 06:38:00,25.3,23.0,30.49,West,275,0.0,-999.0,89,-99.99,,,0.00,weatherlink.com 1.10,2013-01-15 14:38:00,
2013-01-15 06:52:00,25.2,22.0,30.49,West,275,0.0,-999.0,89,-99.99,,,0.00,weatherlink.com 1.10,2013-01-15 14:52:00,
2013-01-15 07:07:00,25.1,22.0,30.50,West,275,0.0,-999.0,89,-99.99,,,0.00,weatherlink.com 1.10,2013-01-15 15:07:00,
2013-01-15 07:22:00,25.0,22.0,30.50,West,275,0.0,-999.0,89,-99.99,,,0.00,weatherlink.com 1.10,2013-01-15 15:22:00,
2013-01-15 07:38:00,25.0,23.0,30.51,West,275,0.0,-999.0,90,-99.99,,,0.00,weatherlink.com 1.10,2013-01-15 15:38:00,
2013-01-15 07:53:00,25.3,23.0,30.51,West,275,0.0,-999.0,90,-99.99,,,0.00,weatherlink.com 1.10,2013-01-15 15:53:00,
2013-01-15 08:07:00,26.0,24.0,30.52,West,275,0.0,-999.0,90,-99.99,,,0.00,weatherlink.com 1.10,2013-01-15 16:07:00,
2013-01-15 08:22:00,27.2,25.0,30.52,West,275,0.0,-999.0,90,-99.99,,,0.00,weatherlink.com 1.10,2013-01-15 16:22:00,
2013-01-15 08:37:00,28.4,26.0,30.52,West,275,0.0,-999.0,89,-99.99,,,0.00,weatherlink.com 1.10,2013-01-15 16:37:00,
2013-01-15 08:53:00,30.6,27.0,30.52,West,275,0.0,-999.0,85,-99.99,,,0.00,weatherlink.com 1.10,2013-01-15 16:53:00,
2013-01-15 09:08:00,33.2,28.0,30.52,West,275,0.0,-999.0,80,-99.99,,,0.00,weatherlink.com 1.10,2013-01-15 17:08:00,
2013-01-15 09:22:00,35.0,28.0,30.52,West,275,0.0,-999.0,76,-99.99,,,0.00,weatherlink.com 1.10,2013-01-15 17:22:00,
2013-01-15 09:38:00,36.0,29.0,30.52,West,275,0.0,-999.0,75,-99.99,,,0.00,weatherlink.com 1.10,2013-01-15 17:38:00,
2013-01-15 09:53:00,37.7,30.0,30.52,West,275,0.0,-999.0,75,-99.99,,,0.00,weatherlink.com 1.10,2013-01-15 17:53:00,
2013-01-15 10:08:00,38.9,31.0,30.52,West,275,0.0,-999.0,73,-99.99,,,0.00,weatherlink.com 1.10,2013-01-15 18:08:00,
2013-01-15 10:23:00,40.0,31.0,30.52,West,275,0.0,-999.0,69,-99.99,,,0.00,weatherlink.com 1.10,2013-01-15 18:23:00,
2013-01-15 10:38:00,41.1,32.0,30.51,West,275,0.0,-999.0,69,-99.99,,,0.00,weatherlink.com 1.10,2013-01-15 18:38:00,
2013-01-15 10:53:00,42.2,31.0,30.51,West,261,0.0,-999.0,66,-99.99,,,0.00,weatherlink.com 1.10,2013-01-15 18:53:00,
2013-01-15 11:08:00,43.2,32.0,30.50,WSW,250,0.0,-999.0,65,-99.99,,,0.00,weatherlink.com 1.10,2013-01-15 19:08:00,
2013-01-15 11:23:00,43.8,32.0,30.50,WSW,251,0.0,-999.0,63,-99.99,,,0.00,weatherlink.com 1.10,2013-01-15 19:23:00,
2013-01-15 11:38:00,44.3,32.0,30.50,WSW,249,0.0,-999.0,62,-99.99,,,0.00,weatherlink.com 1.10,2013-01-15 19:38:00,
2013-01-15 11:53:00,45.0,32.0,30.49,South,184,2.0,-999.0,61,-99.99,,,0.00,weatherlink.com 1.10,2013-01-15 19:53:00,
2013-01-15 12:08:00,46.7,32.0,30.48,South,169,0.0,-999.0,58,-99.99,,,0.00,weatherlink.com 1.10,2013-01-15 20:08:00,
2013-01-15 12:24:00,47.2,33.0,30.48,South,178,0.0,-999.0,58,-99.99,,,0.00,weatherlink.com 1.10,2013-01-15 20:24:00,
2013-01-15 12:39:00,46.8,33.0,30.47,SSW,194,5.0,-999.0,58,-99.99,,,0.00,weatherlink.com 1.10,2013-01-15 20:39:00,
2013-01-15 12:53:00,46.6,33.0,30.46,SSW,207,0.0,-999.0,59,-99.99,,,0.00,weatherlink.com 1.10,2013-01-15 20:53:00,
2013-01-15 13:08:00,47.8,33.0,30.46,SSW,198,3.0,-999.0,58,-99.99,,,0.00,weatherlink.com 1.10,2013-01-15 21:08:00,
2013-01-15 13:39:00,47.4,34.0,30.46,SSW,203,2.0,-999.0,59,-99.99,,,0.00,weatherlink.com 1.10,2013-01-15 21:39:00,
2013-01-15 13:54:00,47.9,34.0,30.46,SSW,202,0.0,-999.0,58,-99.99,,,0.00,weatherlink.com 1.10,2013-01-15 21:54:00,
2013-01-15 14:09:00,48.6,34.0,30.46,SSW,202,0.0,-999.0,57,-99.99,,,0.00,weatherlink.com 1.10,2013-01-15 22:09:00,
2013-01-15 14:21:00,48.5,33.9,30.46,SSW,202,1.0,4.0,57,0.00,,,0.00,Wunderground v.1.15,2013-01-15 22:21:00,
2013-01-15 14:27:00,48.6,34.0,30.46,SSW,202,1.0,4.0,57,0.00,,,0.00,Wunderground v.1.15,2013-01-15 22:27:00,
2013-01-15 14:33:00,48.5,34.4,30.46,SSW,202,2.0,2.0,58,0.00,,,0.00,Wunderground v.1.15,2013-01-15 22:33:00,
2013-01-15 14:39:00,48.6,34.0,30.46,SSW,202,0.0,-999.0,58,-99.99,,,0.00,weatherlink.com 1.10,2013-01-15 22:39:00,
2013-01-15 14:47:00,48.8,34.2,30.46,SSW,203,2.0,4.0,57,0.00,,,0.00,Wunderground v.1.15,2013-01-15 22:47:00,
2013-01-15 14:53:00,48.8,34.7,30.46,SSW,203,2.0,3.0,58,0.00,,,0.00,Wunderground v.1.15,2013-01-15 22:53:00,
2013-01-15 15:03:00,49.2,34.2,30.46,SSW,204,2.0,2.0,56,0.00,,,0.00,Wunderground v.1.15,2013-01-15 23:03:00,
2013-01-15 15:10:00,48.9,34.0,30.46,SSW,204,3.0,-999.0,57,-99.99,,,0.00,weatherlink.com 1.10,2013-01-15 23:10:00,
2013-01-15 15:17:00,49.0,34.4,30.45,SSW,209,2.0,5.0,57,0.00,,,0.00,Wunderground v.1.15,2013-01-15 23:17:00,
2013-01-15 15:23:00,48.8,34.7,30.46,SSW,209,2.0,2.0,58,0.00,,,0.00,Wunderground v.1.15,2013-01-15 23:23:00,
2013-01-15 15:31:00,48.8,34.2,30.46,SSW,209,2.0,3.0,57,0.00,,,0.00,Wunderground v.1.15,2013-01-15 23:31:00,
2013-01-15 15:37:00,48.9,34.3,30.46,SSW,209,2.0,4.0,57,0.00,,,0.00,Wunderground v.1.15,2013-01-15 23:37:00,
2013-01-15 15:43:00,48.7,34.1,30.46,SSW,209,1.0,1.0,57,0.00,,,0.00,Wunderground v.1.15,2013-01-15 23:43:00,
2013-01-15 15:51:00,48.6,34.0,30.46,SSW,209,1.0,2.0,57,0.00,,,0.00,Wunderground v.1.15,2013-01-15 23:51:00,
2013-01-15 15:57:00,48.4,34.3,30.46,SSW,209,1.0,1.0,58,0.00,,,0.00,Wunderground v.1.15,2013-01-15 23:57:00,
2013-01-15 16:03:00,48.0,33.9,30.46,SSW,209,0.0,1.0,58,0.00,,,0.00,Wunderground v.1.15,2013-01-16 00:03:00,
2013-01-15 16:11:00,47.7,34.1,30.46,SSW,209,0.0,0.0,59,0.00,,,0.00,Wunderground v.1.15,2013-01-16 00:11:00,
2013-01-15 16:17:00,47.9,34.3,30.46,SSW,209,0.0,0.0,59,0.00,,,0.00,Wunderground v.1.15,2013-01-16 00:17:00,
2013-01-15 16:23:00,47.8,33.7,30.47,SSW,209,1.0,2.0,58,0.00,,,0.00,Wunderground v.1.15,2013-01-16 00:23:00,
2013-01-15 16:33:00,46.7,33.5,30.47,SSW,209,1.0,1.0,60,0.00,,,0.00,Wunderground v.1.15,2013-01-16 00:33:00,
2013-01-15 16:41:00,45.9,33.2,30.47,SSW,209,0.0,1.0,61,0.00,,,0.00,Wunderground v.1.15,2013-01-16 00:41:00,
2013-01-15 16:47:00,45.4,33.1,30.47,SSW,209,0.0,0.0,62,0.00,,,0.00,Wunderground v.1.15,2013-01-16 00:47:00,
2013-01-15 16:53:00,45.0,33.2,30.47,SSW,209,0.0,0.0,63,0.00,,,0.00,Wunderground v.1.15,2013-01-16 00:53:00,
2013-01-15 16:59:00,44.5,33.0,30.46,SSW,209,0.0,-999.0,64,-99.99,,,0.00,weatherlink.com 1.10,2013-01-16 00:59:00,
2013-01-15 17:05:00,44.1,33.1,30.46,SSW,209,0.0,0.0,65,0.00,,,0.00,Wunderground v.1.15,2013-01-16 01:05:00,
2013-01-15 17:11:00,43.7,33.1,30.46,SSW,209,0.0,0.0,66,0.00,,,0.00,Wunderground v.1.15,2013-01-16 01:11:00,
2013-01-15 17:17:00,43.0,32.8,30.46,SSW,209,0.0,0.0,67,0.00,,,0.00,Wunderground v.1.15,2013-01-16 01:17:00,
2013-01-15 17:23:00,42.1,32.7,30.47,SSW,209,0.0,0.0,69,0.00,,,0.00,Wunderground v.1.15,2013-01-16 01:23:00,
2013-01-15 17:29:00,41.5,32.0,30.46,SSW,209,0.0,-999.0,70,-99.99,,,0.00,weatherlink.com 1.10,2013-01-16 01:29:00,
2013-01-15 17:35:00,41.0,32.3,30.46,SSW,209,0.0,0.0,71,0.00,,,0.00,Wunderground v.1.15,2013-01-16 01:35:00,
2013-01-15 17:41:00,40.5,32.5,30.46,SSW,209,0.0,0.0,73,0.00,,,0.00,Wunderground v.1.15,2013-01-16 01:41:00,
2013-01-15 17:47:00,39.9,32.3,30.46,SSW,209,0.0,0.0,74,0.00,,,0.00,Wunderground v.1.15,2013-01-16 01:47:00,
2013-01-15 17:53:00,39.3,32.0,30.46,SSW,209,0.0,0.0,75,0.00,,,0.00,Wunderground v.1.15,2013-01-16 01:53:00,
2013-01-15 17:59:00,38.9,32.0,30.46,SSW,209,0.0,-999.0,75,-99.99,,,0.00,weatherlink.com 1.10,2013-01-16 01:59:00,
2013-01-15 18:05:00,38.5,31.6,30.46,SSW,209,0.0,0.0,76,0.00,,,0.00,Wunderground v.1.15,2013-01-16 02:05:00,
2013-01-15 18:11:00,38.0,31.4,30.46,SSW,209,0.0,0.0,77,0.00,,,0.00,Wunderground v.1.15,2013-01-16 02:11:00,
2013-01-15 18:16:00,37.6,31.0,30.46,SSW,209,0.0,-999.0,78,-99.99,,,0.00,weatherlink.com 1.10,2013-01-16 02:16:00,
2013-01-15 18:23:00,37.2,31.6,30.46,SSW,209,0.0,0.0,80,0.00,,,0.00,Wunderground v.1.15,2013-01-16 02:23:00,
2013-01-15 18:31:00,36.8,31.0,30.46,SSW,208,0.0,-999.0,80,-99.99,,,0.00,weatherlink.com 1.10,2013-01-16 02:31:00,
2013-01-15 18:37:00,36.5,31.2,30.46,SSW,208,0.0,0.0,81,0.00,,,0.00,Wunderground v.1.15,2013-01-16 02:37:00,
2013-01-15 18:43:00,36.2,30.9,30.46,SSW,209,0.0,0.0,81,0.00,,,0.00,Wunderground v.1.15,2013-01-16 02:43:00,
2013-01-15 18:51:00,35.8,30.8,30.46,SSW,209,0.0,0.0,82,0.00,,,0.00,Wunderground v.1.15,2013-01-16 02:51:00,
2013-01-15 18:57:00,35.5,30.8,30.46,SSW,209,0.0,0.0,83,0.00,,,0.00,Wunderground v.1.15,2013-01-16 02:57:00,
2013-01-15 19:03:00,35.3,30.7,30.46,SSW,209,0.0,0.0,83,0.00,,,0.00,Wunderground v.1.15,2013-01-16 03:03:00,
2013-01-15 19:11:00,35.0,30.4,30.46,SSW,209,0.0,0.0,83,0.00,,,0.00,Wunderground v.1.15,2013-01-16 03:11:00,
2013-01-15 19:16:00,34.9,30.0,30.47,SSW,208,0.0,-999.0,83,-99.99,,,0.00,weatherlink.com 1.10,2013-01-16 03:16:00,
2013-01-15 19:21:00,34.7,30.4,30.47,SSW,209,0.0,0.0,84,0.00,,,0.00,Wunderground v.1.15,2013-01-16 03:21:00,
2013-01-15 19:27:00,34.4,30.4,30.46,SSW,209,0.0,0.0,85,0.00,,,0.00,Wunderground v.1.15,2013-01-16 03:27:00,
2013-01-15 19:32:00,34.2,30.0,30.47,SSW,208,0.0,-999.0,85,-99.99,,,0.00,weatherlink.com 1.10,2013-01-16 03:32:00,
2013-01-15 19:41:00,33.9,29.9,30.47,SSW,209,0.0,0.0,85,0.00,,,0.00,Wunderground v.1.15,2013-01-16 03:41:00,
2013-01-15 19:47:00,33.7,30.0,30.47,SSW,208,0.0,0.0,86,0.00,,,0.00,Wunderground v.1.15,2013-01-16 03:47:00,
2013-01-15 19:53:00,33.5,29.8,30.47,SSW,209,0.0,0.0,86,0.00,,,0.00,Wunderground v.1.15,2013-01-16 03:53:00,
2013-01-15 20:02:00,33.2,30.0,30.46,SSW,208,0.0,-999.0,86,-99.99,,,0.00,weatherlink.com 1.10,2013-01-16 04:02:00,
2013-01-15 20:11:00,32.9,29.5,30.46,SSW,208,0.0,0.0,87,0.00,,,0.00,Wunderground v.1.15,2013-01-16 04:11:00,
2013-01-15 20:17:00,32.8,29.4,30.47,SSW,209,0.0,0.0,87,0.00,,,0.00,Wunderground v.1.15,2013-01-16 04:17:00,
2013-01-15 20:23:00,33.0,29.8,30.46,SSW,208,0.0,0.0,88,0.00,,,0.00,Wunderground v.1.15,2013-01-16 04:23:00,
2013-01-15 20:33:00,33.7,30.2,30.47,SSW,209,0.0,0.0,87,0.00,,,0.00,Wunderground v.1.15,2013-01-16 04:33:00,
2013-01-15 20:41:00,34.2,30.4,30.46,SSW,209,0.0,0.0,86,0.00,,,0.00,Wunderground v.1.15,2013-01-16 04:41:00,
2013-01-15 20:47:00,34.5,30.5,30.46,SSW,209,0.0,0.0,85,0.00,,,0.00,Wunderground v.1.15,2013-01-16 04:47:00,
2013-01-15 20:53:00,34.6,30.6,30.46,SSW,209,0.0,0.0,85,0.00,,,0.00,Wunderground v.1.15,2013-01-16 04:53:00,
2013-01-15 21:03:00,34.9,30.8,30.46,SSW,209,0.0,0.0,85,0.00,,,0.00,Wunderground v.1.15,2013-01-16 05:03:00,
2013-01-15 21:04:00,34.9,31.0,30.46,SSW,209,0.0,-999.0,84,-99.99,,,0.00,weatherlink.com 1.10,2013-01-16 05:04:00,
2013-01-15 21:11:00,35.0,30.7,30.46,SSW,209,0.0,0.0,84,0.00,,,0.00,Wunderground v.1.15,2013-01-16 05:11:00,
2013-01-15 21:13:00,35.1,30.8,30.46,SSW,208,0.0,0.0,84,0.00,,,0.00,Wunderground v.1.15,2013-01-16 05:13:00,
2013-01-15 21:21:00,35.1,31.0,30.46,SSW,209,0.0,-999.0,84,-99.99,,,0.00,weatherlink.com 1.10,2013-01-16 05:21:00,
2013-01-15 21:27:00,35.3,30.9,30.46,SSW,209,0.0,0.0,84,0.00,,,0.00,Wunderground v.1.15,2013-01-16 05:27:00,
2013-01-15 21:33:00,35.3,30.9,30.46,SSW,209,0.0,0.0,84,0.00,,,0.00,Wunderground v.1.15,2013-01-16 05:33:00,
2013-01-15 21:41:00,35.2,30.9,30.46,SSW,208,0.0,0.0,84,0.00,,,0.00,Wunderground v.1.15,2013-01-16 05:41:00,
2013-01-15 21:47:00,34.9,30.3,30.46,SSW,209,0.0,0.0,83,0.00,,,0.00,Wunderground v.1.15,2013-01-16 05:47:00,
2013-01-15 21:53:00,34.6,30.3,30.46,SSW,208,0.0,0.0,84,0.00,,,0.00,Wunderground v.1.15,2013-01-16 05:53:00,
2013-01-15 22:01:00,34.1,29.8,30.46,SSW,208,0.0,0.0,84,0.00,,,0.00,Wunderground v.1.15,2013-01-16 06:01:00,
2013-01-15 22:06:00,33.8,30.0,30.46,SSW,209,0.0,-999.0,85,-99.99,,,0.00,weatherlink.com 1.10,2013-01-16 06:06:00,
2013-01-15 22:13:00,33.4,29.4,30.46,SSW,209,0.0,0.0,85,0.00,,,0.00,Wunderground v.1.15,2013-01-16 06:13:00,
2013-01-15 22:21:00,33.0,29.3,30.46,SSW,209,0.0,0.0,86,0.00,,,0.00,Wunderground v.1.15,2013-01-16 06:21:00,
2013-01-15 22:27:00,32.7,29.0,30.46,SSW,209,0.0,0.0,86,0.00,,,0.00,Wunderground v.1.15,2013-01-16 06:27:00,
2013-01-15 22:33:00,32.5,29.1,30.46,SSW,209,0.0,0.0,87,0.00,,,0.00,Wunderground v.1.15,2013-01-16 06:33:00,
2013-01-15 22:41:00,32.1,28.7,30.46,SSW,208,0.0,0.0,87,0.00,,,0.00,Wunderground v.1.15,2013-01-16 06:41:00,
2013-01-15 22:47:00,31.9,28.8,30.46,SSW,209,0.0,0.0,88,0.00,,,0.00,Wunderground v.1.15,2013-01-16 06:47:00,
2013-01-15 22:52:00,31.7,29.0,30.47,SSW,209,0.0,-999.0,88,-99.99,,,0.00,weatherlink.com 1.10,2013-01-16 06:52:00,
2013-01-15 22:57:00,31.6,28.5,30.47,SSW,208,0.0,0.0,88,0.00,,,0.00,Wunderground v.1.15,2013-01-16 06:57:00,
2013-01-15 23:03:00,31.4,28.5,30.47,SSW,209,0.0,0.0,89,0.00,,,0.00,Wunderground v.1.15,2013-01-16 07:03:00,
2013-01-15 23:11:00,31.2,28.3,30.47,SSW,209,0.0,0.0,89,0.00,,,0.00,Wunderground v.1.15,2013-01-16 07:11:00,
2013-01-15 23:17:00,31.0,28.4,30.46,SSW,208,0.0,0.0,90,0.00,,,0.00,Wunderground v.1.15,2013-01-16 07:17:00,
2013-01-15 23:23:00,30.9,28.3,30.46,SSW,209,0.0,0.0,90,0.00,,,0.00,Wunderground v.1.15,2013-01-16 07:23:00,
2013-01-15 23:31:00,31.1,28.8,30.46,SSW,208,0.0,0.0,91,0.00,,,0.00,Wunderground v.1.15,2013-01-16 07:31:00,
2013-01-15 23:37:00,31.0,28.7,30.46,SSW,209,0.0,0.0,91,0.00,,,0.00,Wunderground v.1.15,2013-01-16 07:37:00,
2013-01-15 23:43:00,31.0,28.7,30.46,SSW,208,0.0,0.0,91,0.00,,,0.00,Wunderground v.1.15,2013-01-16 07:43:00,
2013-01-15 23:51:00,30.9,28.3,30.46,SSW,209,0.0,0.0,90,0.00,,,0.00,Wunderground v.1.15,2013-01-16 07:51:00,
2013-01-15 23:57:00,30.7,28.1,30.46,SSW,208,0.0,0.0,90,0.00,,,0.00,Wunderground v.1.15,2013-01-16 07:57:00,